Weather History for Gallup, NM

Change the Weather History Date:

Monday, February 10, 2014

  Actual Average Record
Temperature  
Mean Temperature 40 °F -  
Max Temperature 59 °F 45 °F 59 °F (2014)
Min Temperature 21 °F 15 °F -12 °F (1986)
Degree Days  
Heating Degree Days 25    
Moisture  
Dew Point 24 °F    
Average Humidity 60    
Maximum Humidity 92    
Minimum Humidity 25    
Precipitation  
Precipitation 0.00 in - - ()
Sea Level Pressure  
Sea Level Pressure 29.98 in    
Wind  
Wind Speed 6 mph (West)    
Max Wind Speed 17 mph    
Max Gust Speed 21 mph    
Visibility 10 miles    
Events      
Averages and records for this station are not official NWS values.
T = Trace of Precipitation, MM = Missing Value Source: NWS Daily Summary

Daily Weather History Graph

Daily Weather History Graph

Search for Another Location

Airport:

Trip Planner

Search our weather history database for the weather conditions in past years. The results will help you decide how hot, cold, wet, or windy it might be!

Date:

Astronomy

Feb. 10, 2014 Rise Set
Actual Time 7:06 AM MST 5:52 PM MST
Civil Twilight 6:40 AM MST 6:18 PM MST
Nautical Twilight 6:10 AM MST 6:48 PM MST
Astronomical Twilight 5:40 AM MST 7:18 PM MST
Moon 2:27 PM MST (2/10) 3:59 AM MST (2/10)
Length of Visible Light 11h 38m
Length of Day
10h 45m
Waxing Gibbous, 85% of the Moon is Illuminated
Feb 10
Waxing Gibbous
Feb 14
Full
Feb 22
Last Quarter
Mar 1
New
Mar 8
First Quarter

Hourly Weather History & Observations

Time (MST) Temp. Windchill Dew Point Humidity Pressure Visibility Wind Dir Wind Speed Gust Speed Precip Events Conditions
12:53 AM 28.0 °F 24.2 °F 24.1 °F 85% 29.99 in 10.0 mi East 3.5 mph - N/A   Clear
1:53 AM 26.1 °F 21.9 °F 23.0 °F 88% 29.99 in 10.0 mi ENE 3.5 mph - N/A   Clear
2:53 AM 26.1 °F 20.5 °F 21.0 °F 81% 29.96 in 10.0 mi ENE 4.6 mph - N/A   Clear
3:53 AM 26.1 °F 21.9 °F 21.0 °F 81% 29.94 in 10.0 mi ENE 3.5 mph - N/A   Clear
4:53 AM 26.1 °F - 21.9 °F 84% 29.94 in 10.0 mi Calm Calm - N/A   Clear
5:53 AM 25.0 °F 19.3 °F 21.9 °F 88% 29.99 in 10.0 mi East 4.6 mph - N/A   Clear
6:53 AM 21.0 °F 16.2 °F 19.0 °F 92% 30.07 in 10.0 mi ENE 3.5 mph - N/A   Clear
7:53 AM 26.1 °F - 23.0 °F 88% 30.08 in 10.0 mi Calm Calm - N/A   Clear
8:53 AM 41.0 °F 36.4 °F 30.9 °F 67% 29.96 in 10.0 mi SW 6.9 mph - N/A   Clear
9:53 AM 46.0 °F 39.6 °F 28.9 °F 51% 30.03 in 10.0 mi WSW 15.0 mph - N/A   Clear
10:53 AM 48.9 °F - 28.0 °F 44% 29.98 in 10.0 mi SW 8.1 mph - N/A   Clear
11:53 AM 53.1 °F - 28.0 °F 38% 29.94 in 10.0 mi SSW 10.4 mph - N/A   Clear
12:19 PM 55.0 °F - 25.0 °F 31% 30.02 in 10.0 mi West 9.2 mph 20.7 mph N/A   Clear
12:53 PM 57.0 °F - 23.0 °F 27% 29.87 in 10.0 mi NW 9.2 mph 18.4 mph N/A   Clear
1:53 PM 59.0 °F - 23.0 °F 25% 29.86 in 10.0 mi West 16.1 mph - N/A   Mostly Cloudy
2:53 PM 55.9 °F - 23.0 °F 28% 29.88 in 10.0 mi West 17.3 mph - N/A   Overcast
3:53 PM 53.1 °F - 24.1 °F 32% 29.91 in 10.0 mi WNW 17.3 mph - N/A   Mostly Cloudy
4:53 PM 48.9 °F - 27.0 °F 43% 29.96 in 10.0 mi WNW 17.3 mph - N/A   Overcast
5:53 PM 46.0 °F 41.4 °F 27.0 °F 47% 30.01 in 10.0 mi WSW 9.2 mph - N/A   Overcast
6:53 PM 43.0 °F 40.3 °F 26.1 °F 51% 30.07 in 10.0 mi WSW 4.6 mph - N/A   Scattered Clouds
7:53 PM 39.0 °F 32.8 °F 25.0 °F 57% 30.08 in 10.0 mi NE 9.2 mph - N/A   Mostly Cloudy
8:53 PM 35.1 °F - 24.1 °F 64% 30.00 in 10.0 mi Calm Calm - N/A   Partly Cloudy
9:53 PM 34.0 °F 28.8 °F 24.1 °F 67% 29.98 in 10.0 mi SSE 5.8 mph - N/A   Clear
10:53 PM 30.9 °F - 23.0 °F 72% 29.99 in 10.0 mi Calm Calm - N/A   Clear
11:53 PM 26.1 °F - 19.9 °F 78% 30.00 in 10.0 mi Calm Calm - N/A   Clear